Location: Aragüita
(10.0436°N, 67.8028°W)
Time: 13:14:20
(UTC+00:00)

Cosmos 1862 Rocket - Pass Details

Date: 19 January 2026
Orbit: 596 x 627 km, 82.5° (Epoch: 8 February)

Event Time Altitude Azimuth Distance (km) Brightness Sun altitude
Rises 23:28:39 0° 205° (SSW) 2,903 7.7 -14.3°
Reaches altitude 10° 23:31:09 10° 217° (SW) 1,996 7.0 -14.9°
Maximum altitude 23:34:54 27° 275° (W) 1,205 5.8 -15.7°
Drops below altitude 10° 23:38:39 10° 333° (NNW) 1,990 6.3 -16.6°
Sets 23:41:08 0° 346° (NNW) 2,892 7.0 -17.2°
